Weather in Asyanovo

Russia / Republic of Bashkortostan     55°26′47″N   54°43′00″E
temp.,
°C
wind,
m/s
gust,
m/s
humid.,
%
clouds,
%
prec.,
mm/h
press.,
hPa
HPBL,
m
2 march, tue
tue223:00−19wsw349766 0.0 101855
02:00−21sw349752 0.0 101762
05:00−21ssw479539 0.0 1015131
08:00−17s61192100 0.0 1012296
11:00−13s71294100 0.2 1008428
14:00−10ssw81394100 2.1 1005631
17:00−8ssw71394100 3.5 1002654
20:00−6ssw71494100 1.2 1000600
3 march, wed
wed323:00−3sw91788100 1.4 999576
02:00−2sw6119496 0.1 997336
05:00−3wsw5109594 0.2 998377
08:00−4wsw499482 0.1 997233
11:00−4wsw589487 0.1 999365
14:00−2w479398 0.3 999537
17:00−2w469199 0.3 999584
20:00−4wsw499599 0.1 1000342
4 march, thu
thu423:00−5wsw51096100 0.6 1001427
02:00−8wnw51191100 0.4 1001390
05:00−13w499660 0.4 1003147
08:00−14wsw489663 0.0 1004144
11:00−10wsw599369 0.0 1004325
14:00−6sw61190100 0.1 1003623
17:00−5sw61089100 0.2 1002639
20:00−6ssw81492100 0.2 1000627
5 march, fri
fri523:00−5ssw91887100 0.4 998678
02:00−2sw91794100 0.3 995841
05:00−1wsw101694100 1.3 994993
08:00−1wsw91595100 0.8 994896
11:00−2w81384100 1.9 997912
14:00−4wnw6108995 0.0 1000589
17:00−5w599097 0.0 1004577
20:00−7wnw61088100 0.1 1007606
6 march, sat
sat623:00−12w349567 0.0 100960
02:00−14w339677 0.0 101130
05:00−16w119780 0.0 101220
08:00−13ese2295100 0.0 101057
11:00−10e5795100 0.7 1005263
14:00−7e61095100 3.1 1000489
17:00−6nne5896100 6.8 997275
20:00−7nnw5995100 2.5 997445